Regional Weather Roundup
Issued by NWS

Home | Current Version | Previous Version | Graphics & Text | Print | Product List | Glossary On
Versions: 1 2 3 4 5 6 7 8 9 10 11 12 13 14 15 16 17 18 19 20 21 22 23 24 25 26 27 28 29 30 31 32 33 34 35 36 37 38 39 40 41 42 43 44 45 46 47 48 49 50
000
ASUS43 KBIS 210210
RWRND

NORTH DAKOTA REGIONAL WEATHER ROUNDUP
NATIONAL WEATHER SERVICE BISMARCK ND
900 PM CDT SAT SEP 20 2014

NOTE: "FAIR" INDICATES FEW OR NO CLOUDS BELOW 12,000 FEET WITH NO
SIGNIFICANT WEATHER AND/OR OBSTRUCTIONS TO VISIBILITY.


NDZ001>003-009>011-017-210300-
NORTHWEST NORTH DAKOTA

CITY           SKY/WX    TMP DP  RH WIND       PRES   REMARKS
WILLISTON      CLEAR     57  36  45 NW8       30.14R
MINOT          CLEAR     57  41  55 NW12      30.04R
MINOT AFB      CLEAR     57  43  59 NW12      30.04R
$$

NDZ018>021-031>035-040>046-210300-
SOUTHWEST NORTH DAKOTA

CITY           SKY/WX    TMP DP  RH WIND       PRES   REMARKS
BISMARCK       CLEAR     63  40  42 NW8       30.07R
DICKINSON      CLEAR     52  36  54 NW8       30.14R
GARRISON         N/A     58  40  51 NW10      30.07R
HETTINGER ARPT CLEAR     52  36  54 NW10      30.16R
$$

NDZ004>008-012>016-024-026-027-054-210300-
NORTHEAST NORTH DAKOTA

CITY           SKY/WX    TMP DP  RH WIND       PRES   REMARKS
GRAND FORKS    MOCLDY    53  50  89 NW5       29.90R
GRND FRKS AFB  MOCLDY    53  52  99 NW5       29.92R
DEVILS LAKE    CLOUDY    63  45  51 NW17G23   29.95R
$$

NDZ022-023-025-028>030-036>039-047>053-210300-
SOUTHEAST NORTH DAKOTA

CITY           SKY/WX    TMP DP  RH WIND       PRES   REMARKS
FARGO          CLOUDY    60  49  66 NW10      29.89R
JAMESTOWN      CLEAR     59  42  53 NW15      29.97R
$$




USA.gov is the U.S. government's official web portal to all federal, state and local government web resources and services.